Regional Weather Roundup
Issued by NWS

Home | Current Version | Previous Version | Text Only | Print | Product List | Glossary On
Versions: 1 2 3 4 5 6 7 8 9 10 11 12 13 14 15 16 17 18 19 20 21 22 23 24 25 26 27
000
ASUS44 KBMX 111010
RWRAL

ALABAMA REGIONAL WEATHER ROUNDUP
NATIONAL WEATHER SERVICE BIRMINGHAM AL
400 AM CST MON DEC 11 2017

NOTE: "FAIR" INDICATES FEW OR NO CLOUDS BELOW 12,000 FEET
WITH NO SIGNIFICANT WEATHER AND/OR OBSTRUCTIONS TO VISIBILITY.

THE REMARK "TC" DENOTES TEMPERATURE IN DEGREES CELSIUS.

ALZ001>011-014-016>018-020-111100-
NORTH ALABAMA

CITY           SKY/WX    TMP DP  RH WIND       PRES   REMARKS
MUSCLE SHOALS  CLEAR     31  26  82 CALM      30.18F
HUNTSVILLE     CLEAR     32  26  78 E3        30.17F
DECATUR        CLEAR     30  27  88 SE3       30.18F
HALEYVILLE     FAIR      32  28  85 S6        30.19F WCI  26
GADSDEN        CLEAR     25  25 100 CALM      30.21F
$$

ALZ012-013-022-023-030>036-040>044-111100-
WEST CENTRAL ALABAMA

CITY           SKY/WX    TMP DP  RH WIND       PRES   REMARKS
TUSCALOOSA     CLEAR     30  28  92 CALM      30.23F
DEMOPOLIS        N/A     34  31  90 CALM      30.24F
$$

ALZ015-024>026-033>036-041>044-111100-
CENTRAL ALABAMA

CITY           SKY/WX    TMP DP  RH WIND       PRES   REMARKS
BIRMINGHAM     CLEAR     31  28  89 CALM      30.22F
MONTGOMERY     CLEAR     29  25  85 CALM      30.25F
SHELBY CO ARPT CLEAR     31  29  92 CALM      30.22S
MAXWELL AFB    CLEAR     29  29  99 CALM      30.24S
GREENVILLE     FAIR      30  26  85 CALM      30.24F
SELMA          FAIR      28  27  93 CALM      30.25S
PRATTVILLE     FAIR      27  27  99 CALM      30.25S
BESSEMER       FAIR      35  29  78 S3        30.21F
TALLADEGA      FAIR      28  27  95 CALM      30.23S
PELL CITY      SUNNY     27  27 100 CALM      30.22F
MARION         FAIR      30  30 100 S7        30.23F WCI  23
SYLACAUGA      FAIR      28  28 100 CALM      30.23S
$$

ALZ019-021-028-029-037-038-045>048-111100-
EAST CENTRAL ALABAMA

CITY           SKY/WX    TMP DP  RH WIND       PRES   REMARKS
ANNISTON       CLEAR     29  25  85 CALM      30.21F
ALEXANDER CITY CLEAR     26  25  94 CALM      30.22F
AUBURN         NOT AVBL
$$

ALZ051>064-111100-
SOUTHWEST ALABAMA

CITY           SKY/WX    TMP DP  RH WIND       PRES   REMARKS
MOBILE         FLURRIES  37  35  92 SW3       30.29F
BROOKLEY FIELD CLEAR     40  40 100 SW6       30.31F
EVERGREEN      CLEAR     29  26  89 CALM      30.28F
$$

ALZ049-050-065>069-111100-
SOUTHEAST ALABAMA

CITY           SKY/WX    TMP DP  RH WIND       PRES   REMARKS
DOTHAN         CLEAR     38  34  85 W3        30.29F
OZARK          CLEAR     30  28  90 CALM      30.26F
TROY           CLEAR     31  29  92 CALM      30.26F
EUFAULA        FAIR      28  27  96 CALM      30.25F
$$




USA.gov is the U.S. government's official web portal to all federal, state and local government web resources and services.